owner,sensor,date,latitude,longitude,air_temperature,qcFlag 
WAVCIS,ioos:station:WAVCIS:CSI15:1,2008-04-04T15:00:00Z,28.8332,-90.8320,25.9,11111222 
WAVCIS,ioos:station:WAVCIS:CSI15:1,2008-04-04T16:00:00Z,28.8332,-90.8320,25.92,11111222 
WAVCIS,ioos:station:WAVCIS:CSI15:1,2008-04-04T17:00:00Z,28.8332,-90.8320,26.09,11111222 
WAVCIS,ioos:station:WAVCIS:CSI15:1,2008-04-04T18:00:00Z,28.8332,-90.8320,26.3,11111222 
WAVCIS,ioos:station:WAVCIS:CSI15:1,2008-04-04T19:00:00Z,28.8332,-90.8320,26.24,11111222 
WAVCIS,ioos:station:WAVCIS:CSI15:1,2008-04-04T20:00:00Z,28.8332,-90.8320,26.28,11111222 
WAVCIS,ioos:station:WAVCIS:CSI15:1,2008-04-04T21:00:00Z,28.8332,-90.8320,26.2,11111222 
WAVCIS,ioos:station:WAVCIS:CSI15:1,2008-04-04T22:00:00Z,28.8332,-90.8320,26.15,11111222 
WAVCIS,ioos:station:WAVCIS:CSI15:1,2008-04-04T23:00:00Z,28.8332,-90.8320,26.27,11111222 
WAVCIS,ioos:station:WAVCIS:CSI15:1,2008-04-05T00:00:00Z,28.8332,-90.8320,25.96,11111222 
WAVCIS,ioos:station:WAVCIS:CSI15:1,2008-04-05T01:00:00Z,28.8332,-90.8320,25.82,11111222 
WAVCIS,ioos:station:WAVCIS:CSI15:1,2008-04-05T02:00:00Z,28.8332,-90.8320,25.8,11111222 
WAVCIS,ioos:station:WAVCIS:CSI15:1,2008-04-05T03:00:00Z,28.8332,-90.8320,25.77,11111222 
WAVCIS,ioos:station:WAVCIS:CSI15:1,2008-04-05T04:00:00Z,28.8332,-90.8320,25.62,11111222 
WAVCIS,ioos:station:WAVCIS:CSI15:1,2008-04-05T05:00:00Z,28.8332,-90.8320,25.59,11111222 
WAVCIS,ioos:station:WAVCIS:CSI15:1,2008-04-05T06:00:00Z,28.8332,-90.8320,25.64,11111222 
WAVCIS,ioos:station:WAVCIS:CSI15:1,2008-04-05T07:00:00Z,28.8332,-90.8320,25.6,11111222 
WAVCIS,ioos:station:WAVCIS:CSI15:1,2008-04-05T08:00:00Z,28.8332,-90.8320,25.4,11111222 
WAVCIS,ioos:station:WAVCIS:CSI15:1,2008-04-05T09:00:00Z,28.8332,-90.8320,25.37,11111222 
WAVCIS,ioos:station:WAVCIS:CSI15:1,2008-04-05T10:00:00Z,28.8332,-90.8320,25.28,11111222 
WAVCIS,ioos:station:WAVCIS:CSI15:1,2008-04-05T11:00:00Z,28.8332,-90.8320,25.14,11111222 
WAVCIS,ioos:station:WAVCIS:CSI15:1,2008-04-05T12:00:00Z,28.8332,-90.8320,24.0,11111222 
WAVCIS,ioos:station:WAVCIS:CSI15:1,2008-04-05T13:00:00Z,28.8332,-90.8320,23.02,11111222 
WAVCIS,ioos:station:WAVCIS:CSI15:1,2008-04-05T14:00:00Z,28.8332,-90.8320,21.56,11111222 
WAVCIS,ioos:station:WAVCIS:CSI15:1,2008-04-05T15:00:00Z,28.8332,-90.8320,21.19,11111222 
WAVCIS,ioos:station:WAVCIS:CSI15:1,2008-04-05T16:00:00Z,28.8332,-90.8320,20.71,11111222 
WAVCIS,ioos:station:WAVCIS:CSI15:1,2008-04-05T17:00:00Z,28.8332,-90.8320,20.64,11111222 
WAVCIS,ioos:station:WAVCIS:CSI15:1,2008-04-05T18:00:00Z,28.8332,-90.8320,20.82,11111222 
WAVCIS,ioos:station:WAVCIS:CSI15:1,2008-04-05T19:00:00Z,28.8332,-90.8320,20.97,11111222 
WAVCIS,ioos:station:WAVCIS:CSI15:1,2008-04-05T20:00:00Z,28.8332,-90.8320,21.21,11111222 
WAVCIS,ioos:station:WAVCIS:CSI15:1,2008-04-05T21:00:00Z,28.8332,-90.8320,21.6,11111222 
WAVCIS,ioos:station:WAVCIS:CSI15:1,2008-04-05T22:00:00Z,28.8332,-90.8320,22.11,11111222 
WAVCIS,ioos:station:WAVCIS:CSI15:1,2008-04-05T23:00:00Z,28.8332,-90.8320,22.73,11111222 
WAVCIS,ioos:station:WAVCIS:CSI15:1,2008-04-06T00:00:00Z,28.8332,-90.8320,22.38,11111222 
WAVCIS,ioos:station:WAVCIS:CSI15:1,2008-04-06T01:00:00Z,28.8332,-90.8320,22.61,11111222 
WAVCIS,ioos:station:WAVCIS:CSI15:1,2008-04-06T02:00:00Z,28.8332,-90.8320,22.58,11111222 
WAVCIS,ioos:station:WAVCIS:CSI15:1,2008-04-06T03:00:00Z,28.8332,-90.8320,22.36,11111222 
WAVCIS,ioos:station:WAVCIS:CSI15:1,2008-04-06T04:00:00Z,28.8332,-90.8320,22.36,11111222 
WAVCIS,ioos:station:WAVCIS:CSI15:1,2008-04-06T05:00:00Z,28.8332,-90.8320,22.23,11111222 
WAVCIS,ioos:station:WAVCIS:CSI15:1,2008-04-06T06:00:00Z,28.8332,-90.8320,22.33,11111222 
WAVCIS,ioos:station:WAVCIS:CSI15:1,2008-04-06T07:00:00Z,28.8332,-90.8320,22.34,11111222 
WAVCIS,ioos:station:WAVCIS:CSI15:1,2008-04-06T08:00:00Z,28.8332,-90.8320,22.4,11111222 
WAVCIS,ioos:station:WAVCIS:CSI15:1,2008-04-06T09:00:00Z,28.8332,-90.8320,22.09,11111222 
WAVCIS,ioos:station:WAVCIS:CSI15:1,2008-04-06T10:00:00Z,28.8332,-90.8320,22.1,11111222 
WAVCIS,ioos:station:WAVCIS:CSI15:1,2008-04-06T11:00:00Z,28.8332,-90.8320,22.08,11111222 
WAVCIS,ioos:station:WAVCIS:CSI15:1,2008-04-06T12:00:00Z,28.8332,-90.8320,22.1,11111222 
WAVCIS,ioos:station:WAVCIS:CSI15:1,2008-04-06T13:00:00Z,28.8332,-90.8320,21.97,11111222 
WAVCIS,ioos:station:WAVCIS:CSI15:1,2008-04-06T14:00:00Z,28.8332,-90.8320,21.82,11111222 
WAVCIS,ioos:station:WAVCIS:CSI15:1,2008-04-06T15:00:00Z,28.8332,-90.8320,21.8,11111222 
WAVCIS,ioos:station:WAVCIS:CSI15:1,2008-04-06T16:00:00Z,28.8332,-90.8320,22.04,11111222 
WAVCIS,ioos:station:WAVCIS:CSI15:1,2008-04-06T17:00:00Z,28.8332,-90.8320,22.4,11111222 
WAVCIS,ioos:station:WAVCIS:CSI15:1,2008-04-06T18:00:00Z,28.8332,-90.8320,22.88,11111222 
WAVCIS,ioos:station:WAVCIS:CSI15:1,2008-04-06T19:00:00Z,28.8332,-90.8320,22.98,11111222 
WAVCIS,ioos:station:WAVCIS:CSI15:1,2008-04-06T20:00:00Z,28.8332,-90.8320,23.14,11111222 
WAVCIS,ioos:station:WAVCIS:CSI15:1,2008-04-06T21:00:00Z,28.8332,-90.8320,23.45,11111222 
WAVCIS,ioos:station:WAVCIS:CSI15:1,2008-04-06T22:00:00Z,28.8332,-90.8320,23.77,11111222 
WAVCIS,ioos:station:WAVCIS:CSI15:1,2008-04-06T23:00:00Z,28.8332,-90.8320,23.74,11111222 
WAVCIS,ioos:station:WAVCIS:CSI15:1,2008-04-07T00:00:00Z,28.8332,-90.8320,23.85,11111222 
WAVCIS,ioos:station:WAVCIS:CSI15:1,2008-04-07T01:00:00Z,28.8332,-90.8320,23.72,11111222 
WAVCIS,ioos:station:WAVCIS:CSI15:1,2008-04-07T02:00:00Z,28.8332,-90.8320,23.64,11111222 
WAVCIS,ioos:station:WAVCIS:CSI15:1,2008-04-07T03:00:00Z,28.8332,-90.8320,23.51,11111222 
WAVCIS,ioos:station:WAVCIS:CSI15:1,2008-04-07T04:00:00Z,28.8332,-90.8320,23.46,11111222 
WAVCIS,ioos:station:WAVCIS:CSI15:1,2008-04-07T05:00:00Z,28.8332,-90.8320,23.3,11111222 
WAVCIS,ioos:station:WAVCIS:CSI15:1,2008-04-07T06:00:00Z,28.8332,-90.8320,23.24,11111222 
WAVCIS,ioos:station:WAVCIS:CSI15:1,2008-04-07T07:00:00Z,28.8332,-90.8320,23.12,11111222 
WAVCIS,ioos:station:WAVCIS:CSI15:1,2008-04-07T08:00:00Z,28.8332,-90.8320,22.96,11111222 
WAVCIS,ioos:station:WAVCIS:CSI15:1,2008-04-07T09:00:00Z,28.8332,-90.8320,22.87,11111222 
WAVCIS,ioos:station:WAVCIS:CSI15:1,2008-04-07T10:00:00Z,28.8332,-90.8320,22.87,11111222 
WAVCIS,ioos:station:WAVCIS:CSI15:1,2008-04-07T11:00:00Z,28.8332,-90.8320,22.46,11111222 
WAVCIS,ioos:station:WAVCIS:CSI15:1,2008-04-07T12:00:00Z,28.8332,-90.8320,21.82,11111222 
WAVCIS,ioos:station:WAVCIS:CSI15:1,2008-04-07T13:00:00Z,28.8332,-90.8320,21.74,11111222 
WAVCIS,ioos:station:WAVCIS:CSI15:1,2008-04-07T14:00:00Z,28.8332,-90.8320,21.9,11111222 
WAVCIS,ioos:station:WAVCIS:CSI15:1,2008-04-07T15:00:00Z,28.8332,-90.8320,22.88,11111222 
WAVCIS,ioos:station:WAVCIS:CSI15:1,2008-04-07T16:00:00Z,28.8332,-90.8320,22.97,11111222 
WAVCIS,ioos:station:WAVCIS:CSI15:1,2008-04-07T17:00:00Z,28.8332,-90.8320,23.37,11111222 
WAVCIS,ioos:station:WAVCIS:CSI15:1,2008-04-07T18:00:00Z,28.8332,-90.8320,23.61,11111222 
WAVCIS,ioos:station:WAVCIS:CSI15:1,2008-04-07T19:00:00Z,28.8332,-90.8320,23.89,11111222 
WAVCIS,ioos:station:WAVCIS:CSI15:1,2008-04-07T20:00:00Z,28.8332,-90.8320,23.58,11111222 
WAVCIS,ioos:station:WAVCIS:CSI15:1,2008-04-07T21:00:00Z,28.8332,-90.8320,23.57,11111222 
WAVCIS,ioos:station:WAVCIS:CSI15:1,2008-04-07T22:00:00Z,28.8332,-90.8320,23.56,11111222 
WAVCIS,ioos:station:WAVCIS:CSI15:1,2008-04-07T23:00:00Z,28.8332,-90.8320,23.61,11111222 
WAVCIS,ioos:station:WAVCIS:CSI15:1,2008-04-08T00:00:00Z,28.8332,-90.8320,23.49,11111222 
WAVCIS,ioos:station:WAVCIS:CSI15:1,2008-04-08T01:00:00Z,28.8332,-90.8320,23.27,11111222 
WAVCIS,ioos:station:WAVCIS:CSI15:1,2008-04-08T02:00:00Z,28.8332,-90.8320,23.23,11111222 
WAVCIS,ioos:station:WAVCIS:CSI15:1,2008-04-08T03:00:00Z,28.8332,-90.8320,23.17,11111222 
WAVCIS,ioos:station:WAVCIS:CSI15:1,2008-04-08T04:00:00Z,28.8332,-90.8320,23.13,11111222 
WAVCIS,ioos:station:WAVCIS:CSI15:1,2008-04-08T05:00:00Z,28.8332,-90.8320,23.54,11111222 
WAVCIS,ioos:station:WAVCIS:CSI15:1,2008-04-08T06:00:00Z,28.8332,-90.8320,23.85,11111222 
WAVCIS,ioos:station:WAVCIS:CSI15:1,2008-04-08T07:00:00Z,28.8332,-90.8320,23.75,11111222 
WAVCIS,ioos:station:WAVCIS:CSI15:1,2008-04-08T08:00:00Z,28.8332,-90.8320,23.6,11111222 
WAVCIS,ioos:station:WAVCIS:CSI15:1,2008-04-08T09:00:00Z,28.8332,-90.8320,23.71,11111222 
WAVCIS,ioos:station:WAVCIS:CSI15:1,2008-04-08T10:00:00Z,28.8332,-90.8320,23.49,11111222 
WAVCIS,ioos:station:WAVCIS:CSI15:1,2008-04-08T11:00:00Z,28.8332,-90.8320,23.44,11111222 
WAVCIS,ioos:station:WAVCIS:CSI15:1,2008-04-08T12:00:00Z,28.8332,-90.8320,23.6,11111222 
WAVCIS,ioos:station:WAVCIS:CSI15:1,2008-04-08T13:00:00Z,28.8332,-90.8320,24.03,11111222 
WAVCIS,ioos:station:WAVCIS:CSI15:1,2008-04-08T14:00:00Z,28.8332,-90.8320,24.27,11111222 
WAVCIS,ioos:station:WAVCIS:CSI15:1,2008-04-08T15:00:00Z,28.8332,-90.8320,24.39,11111222 
WAVCIS,ioos:station:WAVCIS:CSI15:1,2008-04-08T16:00:00Z,28.8332,-90.8320,24.39,11111222 
WAVCIS,ioos:station:WAVCIS:CSI15:1,2008-04-08T17:00:00Z,28.8332,-90.8320,24.19,11111222 
WAVCIS,ioos:station:WAVCIS:CSI15:1,2008-04-08T18:00:00Z,28.8332,-90.8320,24.53,11111222 
WAVCIS,ioos:station:WAVCIS:CSI15:1,2008-04-08T19:00:00Z,28.8332,-90.8320,24.95,11111222 
WAVCIS,ioos:station:WAVCIS:CSI15:1,2008-04-08T20:00:00Z,28.8332,-90.8320,24.67,11111222 
WAVCIS,ioos:station:WAVCIS:CSI15:1,2008-04-08T21:00:00Z,28.8332,-90.8320,24.79,11111222 
WAVCIS,ioos:station:WAVCIS:CSI15:1,2008-04-08T22:00:00Z,28.8332,-90.8320,24.87,11111222 
WAVCIS,ioos:station:WAVCIS:CSI15:1,2008-04-08T23:00:00Z,28.8332,-90.8320,24.91,11111222 
WAVCIS,ioos:station:WAVCIS:CSI15:1,2008-04-09T00:00:00Z,28.8332,-90.8320,24.72,11111222 
WAVCIS,ioos:station:WAVCIS:CSI15:1,2008-04-09T01:00:00Z,28.8332,-90.8320,24.62,11111222 
WAVCIS,ioos:station:WAVCIS:CSI15:1,2008-04-09T02:00:00Z,28.8332,-90.8320,24.49,11111222 
WAVCIS,ioos:station:WAVCIS:CSI15:1,2008-04-09T03:00:00Z,28.8332,-90.8320,24.37,11111222 
WAVCIS,ioos:station:WAVCIS:CSI15:1,2008-04-09T04:00:00Z,28.8332,-90.8320,24.35,11111222 
WAVCIS,ioos:station:WAVCIS:CSI15:1,2008-04-09T05:00:00Z,28.8332,-90.8320,24.34,11111222 
WAVCIS,ioos:station:WAVCIS:CSI15:1,2008-04-09T06:00:00Z,28.8332,-90.8320,24.36,11111222 
WAVCIS,ioos:station:WAVCIS:CSI15:1,2008-04-09T07:00:00Z,28.8332,-90.8320,24.31,11111222 
WAVCIS,ioos:station:WAVCIS:CSI15:1,2008-04-09T08:00:00Z,28.8332,-90.8320,24.26,11111222 
WAVCIS,ioos:station:WAVCIS:CSI15:1,2008-04-09T09:00:00Z,28.8332,-90.8320,24.22,11111222 
WAVCIS,ioos:station:WAVCIS:CSI15:1,2008-04-09T10:00:00Z,28.8332,-90.8320,24.2,11111222 
WAVCIS,ioos:station:WAVCIS:CSI15:1,2008-04-09T11:00:00Z,28.8332,-90.8320,24.26,11111222 
WAVCIS,ioos:station:WAVCIS:CSI15:1,2008-04-09T12:00:00Z,28.8332,-90.8320,24.33,11111222 
WAVCIS,ioos:station:WAVCIS:CSI15:1,2008-04-09T13:00:00Z,28.8332,-90.8320,24.47,11111222 
WAVCIS,ioos:station:WAVCIS:CSI15:1,2008-04-09T15:00:00Z,28.8332,-90.8320,24.68,11111222 
WAVCIS,ioos:station:WAVCIS:CSI15:1,2008-04-09T16:00:00Z,28.8332,-90.8320,24.68,11111222 
WAVCIS,ioos:station:WAVCIS:CSI15:1,2008-04-09T17:00:00Z,28.8332,-90.8320,24.79,11111222 
WAVCIS,ioos:station:WAVCIS:CSI15:1,2008-04-09T18:00:00Z,28.8332,-90.8320,24.93,11111222 
WAVCIS,ioos:station:WAVCIS:CSI15:1,2008-04-09T19:00:00Z,28.8332,-90.8320,25.06,11111222 
WAVCIS,ioos:station:WAVCIS:CSI15:1,2008-04-09T20:00:00Z,28.8332,-90.8320,25.05,11111222 
WAVCIS,ioos:station:WAVCIS:CSI15:1,2008-04-09T21:00:00Z,28.8332,-90.8320,25.11,11111222 
WAVCIS,ioos:station:WAVCIS:CSI15:1,2008-04-09T22:00:00Z,28.8332,-90.8320,25.16,11111222 
WAVCIS,ioos:station:WAVCIS:CSI15:1,2008-04-09T23:00:00Z,28.8332,-90.8320,25.07,11111222 
WAVCIS,ioos:station:WAVCIS:CSI15:1,2008-04-10T00:00:00Z,28.8332,-90.8320,24.91,11111222 
WAVCIS,ioos:station:WAVCIS:CSI15:1,2008-04-10T01:00:00Z,28.8332,-90.8320,24.81,11111222 
WAVCIS,ioos:station:WAVCIS:CSI15:1,2008-04-10T02:00:00Z,28.8332,-90.8320,24.81,11111222 
WAVCIS,ioos:station:WAVCIS:CSI15:1,2008-04-10T03:00:00Z,28.8332,-90.8320,24.82,11111222 
WAVCIS,ioos:station:WAVCIS:CSI15:1,2008-04-10T04:00:00Z,28.8332,-90.8320,24.75,11111222 
WAVCIS,ioos:station:WAVCIS:CSI15:1,2008-04-10T05:00:00Z,28.8332,-90.8320,26.84,11111222 
WAVCIS,ioos:station:WAVCIS:CSI15:1,2008-04-10T06:00:00Z,28.8332,-90.8320,25.55,11111222 
WAVCIS,ioos:station:WAVCIS:CSI15:1,2008-04-10T07:00:00Z,28.8332,-90.8320,26.27,11111222 
WAVCIS,ioos:station:WAVCIS:CSI15:1,2008-04-10T08:00:00Z,28.8332,-90.8320,25.81,11111222 
WAVCIS,ioos:station:WAVCIS:CSI15:1,2008-04-10T09:00:00Z,28.8332,-90.8320,25.52,11111222 
WAVCIS,ioos:station:WAVCIS:CSI15:1,2008-04-10T10:00:00Z,28.8332,-90.8320,25.64,11111222 
WAVCIS,ioos:station:WAVCIS:CSI15:1,2008-04-10T11:00:00Z,28.8332,-90.8320,25.65,11111222 
WAVCIS,ioos:station:WAVCIS:CSI15:1,2008-04-10T12:00:00Z,28.8332,-90.8320,25.81,11111222 
WAVCIS,ioos:station:WAVCIS:CSI15:1,2008-04-10T13:00:00Z,28.8332,-90.8320,25.95,11111222 
WAVCIS,ioos:station:WAVCIS:CSI15:1,2008-04-10T14:00:00Z,28.8332,-90.8320,26.22,11111222 
WAVCIS,ioos:station:WAVCIS:CSI15:1,2008-04-10T15:00:00Z,28.8332,-90.8320,26.29,11111222 
WAVCIS,ioos:station:WAVCIS:CSI15:1,2008-04-10T16:00:00Z,28.8332,-90.8320,26.3,11111222 
WAVCIS,ioos:station:WAVCIS:CSI15:1,2008-04-10T17:00:00Z,28.8332,-90.8320,26.32,11111222 
WAVCIS,ioos:station:WAVCIS:CSI15:1,2008-04-10T18:00:00Z,28.8332,-90.8320,26.33,11111222 
WAVCIS,ioos:station:WAVCIS:CSI15:1,2008-04-10T19:00:00Z,28.8332,-90.8320,26.23,11111222 
WAVCIS,ioos:station:WAVCIS:CSI15:1,2008-04-10T20:00:00Z,28.8332,-90.8320,26.32,11111222 
WAVCIS,ioos:station:WAVCIS:CSI15:1,2008-04-10T21:00:00Z,28.8332,-90.8320,26.29,11111222 
WAVCIS,ioos:station:WAVCIS:CSI15:1,2008-04-10T22:00:00Z,28.8332,-90.8320,26.38,11111222 
WAVCIS,ioos:station:WAVCIS:CSI15:1,2008-04-10T23:00:00Z,28.8332,-90.8320,26.41,11111222 
WAVCIS,ioos:station:WAVCIS:CSI15:1,2008-04-11T00:00:00Z,28.8332,-90.8320,26.28,11111222 
WAVCIS,ioos:station:WAVCIS:CSI15:1,2008-04-11T01:00:00Z,28.8332,-90.8320,26.04,11111222 
WAVCIS,ioos:station:WAVCIS:CSI15:1,2008-04-11T02:00:00Z,28.8332,-90.8320,25.94,11111222 
WAVCIS,ioos:station:WAVCIS:CSI15:1,2008-04-11T03:00:00Z,28.8332,-90.8320,26.14,11111222 
WAVCIS,ioos:station:WAVCIS:CSI15:1,2008-04-11T04:00:00Z,28.8332,-90.8320,25.99,11111222 
WAVCIS,ioos:station:WAVCIS:CSI15:1,2008-04-11T05:00:00Z,28.8332,-90.8320,26.04,11111222 
WAVCIS,ioos:station:WAVCIS:CSI15:1,2008-04-11T06:00:00Z,28.8332,-90.8320,25.83,11111222 
WAVCIS,ioos:station:WAVCIS:CSI15:1,2008-04-11T07:00:00Z,28.8332,-90.8320,25.81,11111222 
WAVCIS,ioos:station:WAVCIS:CSI15:1,2008-04-11T08:00:00Z,28.8332,-90.8320,25.82,11111222 
WAVCIS,ioos:station:WAVCIS:CSI15:1,2008-04-11T09:00:00Z,28.8332,-90.8320,25.85,11111222 
WAVCIS,ioos:station:WAVCIS:CSI15:1,2008-04-11T10:00:00Z,28.8332,-90.8320,25.77,11111222 
WAVCIS,ioos:station:WAVCIS:CSI15:1,2008-04-11T11:00:00Z,28.8332,-90.8320,25.71,11111222 
WAVCIS,ioos:station:WAVCIS:CSI15:1,2008-04-11T12:00:00Z,28.8332,-90.8320,25.74,11111222 
WAVCIS,ioos:station:WAVCIS:CSI15:1,2008-04-11T13:00:00Z,28.8332,-90.8320,25.81,11111222 
WAVCIS,ioos:station:WAVCIS:CSI15:1,2008-04-11T14:00:00Z,28.8332,-90.8320,26.06,11111222 
WAVCIS,ioos:station:WAVCIS:CSI15:1,2008-04-11T16:00:00Z,28.8332,-90.8320,26.2,11111222 
WAVCIS,ioos:station:WAVCIS:CSI15:1,2008-04-11T17:00:00Z,28.8332,-90.8320,26.13,11111222 
WAVCIS,ioos:station:WAVCIS:CSI15:1,2008-04-11T18:00:00Z,28.8332,-90.8320,26.19,11111222 
WAVCIS,ioos:station:WAVCIS:CSI15:1,2008-04-11T19:00:00Z,28.8332,-90.8320,26.23,11111222 
WAVCIS,ioos:station:WAVCIS:CSI15:1,2008-04-11T20:00:00Z,28.8332,-90.8320,26.83,11111222 
WAVCIS,ioos:station:WAVCIS:CSI15:1,2008-04-11T21:00:00Z,28.8332,-90.8320,26.69,11111222 
WAVCIS,ioos:station:WAVCIS:CSI15:1,2008-04-11T22:00:00Z,28.8332,-90.8320,26.33,11111222 
WAVCIS,ioos:station:WAVCIS:CSI15:1,2008-04-11T23:00:00Z,28.8332,-90.8320,26.24,11111222 
WAVCIS,ioos:station:WAVCIS:CSI15:1,2008-04-12T00:00:00Z,28.8332,-90.8320,26.23,11111222 
WAVCIS,ioos:station:WAVCIS:CSI15:1,2008-04-12T01:00:00Z,28.8332,-90.8320,26.07,11111222 
WAVCIS,ioos:station:WAVCIS:CSI15:1,2008-04-12T02:00:00Z,28.8332,-90.8320,25.89,11111222 
WAVCIS,ioos:station:WAVCIS:CSI15:1,2008-04-12T03:00:00Z,28.8332,-90.8320,25.96,11111222 
WAVCIS,ioos:station:WAVCIS:CSI15:1,2008-04-12T04:00:00Z,28.8332,-90.8320,25.96,11111222 
WAVCIS,ioos:station:WAVCIS:CSI15:1,2008-04-12T05:00:00Z,28.8332,-90.8320,25.8,11111222 
WAVCIS,ioos:station:WAVCIS:CSI15:1,2008-04-12T06:00:00Z,28.8332,-90.8320,25.61,11111222 
WAVCIS,ioos:station:WAVCIS:CSI15:1,2008-04-12T07:00:00Z,28.8332,-90.8320,25.47,11111222 
WAVCIS,ioos:station:WAVCIS:CSI15:1,2008-04-12T08:00:00Z,28.8332,-90.8320,21.72,11111222 
WAVCIS,ioos:station:WAVCIS:CSI15:1,2008-04-12T09:00:00Z,28.8332,-90.8320,22.1,11111222 
WAVCIS,ioos:station:WAVCIS:CSI15:1,2008-04-12T10:00:00Z,28.8332,-90.8320,21.83,11111222 
WAVCIS,ioos:station:WAVCIS:CSI15:1,2008-04-12T11:00:00Z,28.8332,-90.8320,20.91,11111222 
WAVCIS,ioos:station:WAVCIS:CSI15:1,2008-04-12T12:00:00Z,28.8332,-90.8320,21.23,11111222 
WAVCIS,ioos:station:WAVCIS:CSI15:1,2008-04-12T13:00:00Z,28.8332,-90.8320,21.27,11111222 
WAVCIS,ioos:station:WAVCIS:CSI15:1,2008-04-12T14:00:00Z,28.8332,-90.8320,20.6,11111222 
WAVCIS,ioos:station:WAVCIS:CSI15:1,2008-04-12T15:00:00Z,28.8332,-90.8320,20.51,11111222 
WAVCIS,ioos:station:WAVCIS:CSI15:1,2008-04-12T16:00:00Z,28.8332,-90.8320,20.67,11111222 
WAVCIS,ioos:station:WAVCIS:CSI15:1,2008-04-12T17:00:00Z,28.8332,-90.8320,20.13,11111222 
WAVCIS,ioos:station:WAVCIS:CSI15:1,2008-04-12T18:00:00Z,28.8332,-90.8320,20.14,11111222 
WAVCIS,ioos:station:WAVCIS:CSI15:1,2008-04-12T19:00:00Z,28.8332,-90.8320,20.4,11111222 
WAVCIS,ioos:station:WAVCIS:CSI15:1,2008-04-12T20:00:00Z,28.8332,-90.8320,20.73,11111222 
WAVCIS,ioos:station:WAVCIS:CSI15:1,2008-04-12T21:00:00Z,28.8332,-90.8320,21.55,11111222 
WAVCIS,ioos:station:WAVCIS:CSI15:1,2008-04-12T22:00:00Z,28.8332,-90.8320,22.24,11111222 
WAVCIS,ioos:station:WAVCIS:CSI15:1,2008-04-12T23:00:00Z,28.8332,-90.8320,22.99,11111222 
WAVCIS,ioos:station:WAVCIS:CSI15:1,2008-04-13T00:00:00Z,28.8332,-90.8320,22.85,11111222 
WAVCIS,ioos:station:WAVCIS:CSI15:1,2008-04-13T01:00:00Z,28.8332,-90.8320,22.44,11111222 
WAVCIS,ioos:station:WAVCIS:CSI15:1,2008-04-13T02:00:00Z,28.8332,-90.8320,22.9,11111222 
WAVCIS,ioos:station:WAVCIS:CSI15:1,2008-04-13T03:00:00Z,28.8332,-90.8320,23.04,11111222 
WAVCIS,ioos:station:WAVCIS:CSI15:1,2008-04-13T04:00:00Z,28.8332,-90.8320,22.92,11111222 
WAVCIS,ioos:station:WAVCIS:CSI15:1,2008-04-13T05:00:00Z,28.8332,-90.8320,22.58,11111222 
WAVCIS,ioos:station:WAVCIS:CSI15:1,2008-04-13T06:00:00Z,28.8332,-90.8320,21.44,11111222 
WAVCIS,ioos:station:WAVCIS:CSI15:1,2008-04-13T07:00:00Z,28.8332,-90.8320,21.15,11111222 
WAVCIS,ioos:station:WAVCIS:CSI15:1,2008-04-13T08:00:00Z,28.8332,-90.8320,20.83,11111222 
WAVCIS,ioos:station:WAVCIS:CSI15:1,2008-04-13T09:00:00Z,28.8332,-90.8320,20.45,11111222 
WAVCIS,ioos:station:WAVCIS:CSI15:1,2008-04-13T10:00:00Z,28.8332,-90.8320,19.94,11111222 
WAVCIS,ioos:station:WAVCIS:CSI15:1,2008-04-13T11:00:00Z,28.8332,-90.8320,19.9,11111222 
WAVCIS,ioos:station:WAVCIS:CSI15:1,2008-04-13T12:00:00Z,28.8332,-90.8320,19.8,11111222 
WAVCIS,ioos:station:WAVCIS:CSI15:1,2008-04-13T13:00:00Z,28.8332,-90.8320,20.38,11111222 
WAVCIS,ioos:station:WAVCIS:CSI15:1,2008-04-13T14:00:00Z,28.8332,-90.8320,20.55,11111222 
WAVCIS,ioos:station:WAVCIS:CSI15:1,2008-04-13T15:00:00Z,28.8332,-90.8320,20.72,11111222 
WAVCIS,ioos:station:WAVCIS:CSI15:1,2008-04-13T16:00:00Z,28.8332,-90.8320,20.53,11111222 
WAVCIS,ioos:station:WAVCIS:CSI15:1,2008-04-13T17:00:00Z,28.8332,-90.8320,20.6,11111222 
WAVCIS,ioos:station:WAVCIS:CSI15:1,2008-04-13T18:00:00Z,28.8332,-90.8320,20.53,11111222 
WAVCIS,ioos:station:WAVCIS:CSI15:1,2008-04-13T19:00:00Z,28.8332,-90.8320,20.7,11111222 
WAVCIS,ioos:station:WAVCIS:CSI15:1,2008-04-13T20:00:00Z,28.8332,-90.8320,20.77,11111222 
WAVCIS,ioos:station:WAVCIS:CSI15:1,2008-04-13T21:00:00Z,28.8332,-90.8320,20.73,11111222 
WAVCIS,ioos:station:WAVCIS:CSI15:1,2008-04-13T22:00:00Z,28.8332,-90.8320,21.25,11111222 
WAVCIS,ioos:station:WAVCIS:CSI15:1,2008-04-13T23:00:00Z,28.8332,-90.8320,21.7,11111222 
WAVCIS,ioos:station:WAVCIS:CSI15:1,2008-04-14T00:00:00Z,28.8332,-90.8320,21.65,11111222 
WAVCIS,ioos:station:WAVCIS:CSI15:1,2008-04-14T01:00:00Z,28.8332,-90.8320,21.58,11111222 
WAVCIS,ioos:station:WAVCIS:CSI15:1,2008-04-14T02:00:00Z,28.8332,-90.8320,21.98,11111222 
WAVCIS,ioos:station:WAVCIS:CSI15:1,2008-04-14T03:00:00Z,28.8332,-90.8320,21.35,11111222 
WAVCIS,ioos:station:WAVCIS:CSI15:1,2008-04-14T04:00:00Z,28.8332,-90.8320,20.4,11111222 
WAVCIS,ioos:station:WAVCIS:CSI15:1,2008-04-14T05:00:00Z,28.8332,-90.8320,19.46,11111222 
WAVCIS,ioos:station:WAVCIS:CSI15:1,2008-04-14T06:00:00Z,28.8332,-90.8320,18.82,11111222 
WAVCIS,ioos:station:WAVCIS:CSI15:1,2008-04-14T07:00:00Z,28.8332,-90.8320,18.08,11111222 
WAVCIS,ioos:station:WAVCIS:CSI15:1,2008-04-14T08:00:00Z,28.8332,-90.8320,17.27,11111222 
WAVCIS,ioos:station:WAVCIS:CSI15:1,2008-04-14T09:00:00Z,28.8332,-90.8320,17.38,11111222 
WAVCIS,ioos:station:WAVCIS:CSI15:1,2008-04-14T10:00:00Z,28.8332,-90.8320,17.15,11111222 
WAVCIS,ioos:station:WAVCIS:CSI15:1,2008-04-14T11:00:00Z,28.8332,-90.8320,16.57,11111222 
WAVCIS,ioos:station:WAVCIS:CSI15:1,2008-04-14T12:00:00Z,28.8332,-90.8320,16.22,11111222 
WAVCIS,ioos:station:WAVCIS:CSI15:1,2008-04-14T13:00:00Z,28.8332,-90.8320,15.16,11111222 
WAVCIS,ioos:station:WAVCIS:CSI15:1,2008-04-14T14:00:00Z,28.8332,-90.8320,14.45,11111222 
WAVCIS,ioos:station:WAVCIS:CSI15:1,2008-04-14T15:00:00Z,28.8332,-90.8320,14.85,11111222 
WAVCIS,ioos:station:WAVCIS:CSI15:1,2008-04-14T16:00:00Z,28.8332,-90.8320,14.69,11111222 
WAVCIS,ioos:station:WAVCIS:CSI15:1,2008-04-14T17:00:00Z,28.8332,-90.8320,14.63,11111222 
WAVCIS,ioos:station:WAVCIS:CSI15:1,2008-04-14T18:00:00Z,28.8332,-90.8320,14.65,11111222 
WAVCIS,ioos:station:WAVCIS:CSI15:1,2008-04-14T19:00:00Z,28.8332,-90.8320,14.5,11111222 
WAVCIS,ioos:station:WAVCIS:CSI15:1,2008-04-14T20:00:00Z,28.8332,-90.8320,14.65,11111222 
WAVCIS,ioos:station:WAVCIS:CSI15:1,2008-04-14T21:00:00Z,28.8332,-90.8320,15.59,11111222 
WAVCIS,ioos:station:WAVCIS:CSI15:1,2008-04-14T22:00:00Z,28.8332,-90.8320,16.24,11111222 
WAVCIS,ioos:station:WAVCIS:CSI15:1,2008-04-14T23:00:00Z,28.8332,-90.8320,16.47,11111222 
WAVCIS,ioos:station:WAVCIS:CSI15:1,2008-04-15T00:00:00Z,28.8332,-90.8320,16.66,11111222 
WAVCIS,ioos:station:WAVCIS:CSI15:1,2008-04-15T01:00:00Z,28.8332,-90.8320,16.48,11111222 
WAVCIS,ioos:station:WAVCIS:CSI15:1,2008-04-15T02:00:00Z,28.8332,-90.8320,16.3,11111222 
WAVCIS,ioos:station:WAVCIS:CSI15:1,2008-04-15T03:00:00Z,28.8332,-90.8320,15.98,11111222 
WAVCIS,ioos:station:WAVCIS:CSI15:1,2008-04-15T04:00:00Z,28.8332,-90.8320,15.79,11111222 
WAVCIS,ioos:station:WAVCIS:CSI15:1,2008-04-15T05:00:00Z,28.8332,-90.8320,15.4,11111222 
WAVCIS,ioos:station:WAVCIS:CSI15:1,2008-04-15T06:00:00Z,28.8332,-90.8320,15.17,11111222 
WAVCIS,ioos:station:WAVCIS:CSI15:1,2008-04-15T07:00:00Z,28.8332,-90.8320,14.7,11111222 
WAVCIS,ioos:station:WAVCIS:CSI15:1,2008-04-15T08:00:00Z,28.8332,-90.8320,14.13,11111222 
WAVCIS,ioos:station:WAVCIS:CSI15:1,2008-04-15T09:00:00Z,28.8332,-90.8320,13.81,11111222 
WAVCIS,ioos:station:WAVCIS:CSI15:1,2008-04-15T10:00:00Z,28.8332,-90.8320,13.34,11111222 
WAVCIS,ioos:station:WAVCIS:CSI15:1,2008-04-15T11:00:00Z,28.8332,-90.8320,13.64,11111222 
WAVCIS,ioos:station:WAVCIS:CSI15:1,2008-04-15T12:00:00Z,28.8332,-90.8320,13.49,11111222 
WAVCIS,ioos:station:WAVCIS:CSI15:1,2008-04-15T13:00:00Z,28.8332,-90.8320,13.47,11111222 
WAVCIS,ioos:station:WAVCIS:CSI15:1,2008-04-15T14:00:00Z,28.8332,-90.8320,13.33,11111222 
WAVCIS,ioos:station:WAVCIS:CSI15:1,2008-04-15T15:00:00Z,28.8332,-90.8320,13.1,11111222 
WAVCIS,ioos:station:WAVCIS:CSI15:1,2008-04-15T16:00:00Z,28.8332,-90.8320,13.23,11111222 
WAVCIS,ioos:station:WAVCIS:CSI15:1,2008-04-15T17:00:00Z,28.8332,-90.8320,13.36,11111222 
WAVCIS,ioos:station:WAVCIS:CSI15:1,2008-04-15T18:00:00Z,28.8332,-90.8320,13.67,11111222 
WAVCIS,ioos:station:WAVCIS:CSI15:1,2008-04-15T19:00:00Z,28.8332,-90.8320,13.97,11111222 
WAVCIS,ioos:station:WAVCIS:CSI15:1,2008-04-15T20:00:00Z,28.8332,-90.8320,14.5,11111222 
WAVCIS,ioos:station:WAVCIS:CSI15:1,2008-04-15T21:00:00Z,28.8332,-90.8320,15.01,11111222 